Detroit, MI

7:48 AM EDT on September 25, 2016 (GMT -0400)
Detroit Metro Wayne County

Weather History for KDTW - February, 2011

Change the Weather History Date:

Friday, February 11, 2011

  Actual Average Record
Temperature  
Mean Temperature 12 °F 27 °F  
Max Temperature 25 °F 34 °F 70 °F (1999)
Min Temperature -1 °F 20 °F -10 °F (1885)
Degree Days  
Heating Degree Days 53 38  
Month to date heating degree days 528 424  
Since 1 July heating degree days 4155 3944  
Cooling Degree Days 0 0  
Month to date cooling degree days 0 0  
Year to date cooling degree days 0 0  
Moisture  
Dew Point 4 °F    
Average Humidity 68    
Maximum Humidity 76    
Minimum Humidity 60    
Precipitation  
Precipitation T in 0.07 in 0.82 in (1876)
Month to date precipitation 1.24 0.74  
Year to date precipitation 2.77 2.70  
Snow  
Snow 0.10 in 0.40 in 7.30 in (1988)
Month to date snowfall 16.0 4.0  
Since 1 July snowfall 43.2 27.7  
Snow Depth 12.00 in    
Sea Level Pressure  
Sea Level Pressure 30.00 in    
Wind  
Wind Speed 12 mph (SW)    
Max Wind Speed 22 mph    
Max Gust Speed 26 mph    
Visibility 9 miles    
Events Snow    
T = Trace of Precipitation, MM = Missing Value Source: NWS Daily Summary

Daily Weather History Graph

Daily Weather History Graph

Search for Another Location

Airport or City:

Trip Planner

Search our weather history database for the weather conditions in past years. The results will help you decide how hot, cold, wet, or windy it might be!

Date:

Astronomy

Feb. 11, 2011 Rise Set
Actual Time 7:35 AM EST 6:00 PM EST
Civil Twilight 7:06 AM EST 6:29 PM EST
Nautical Twilight 6:33 AM EST 7:02 PM EST
Astronomical Twilight 6:00 AM EST 7:35 PM EST
Moon 11:16 AM EST (2/11) 1:46 AM EST (2/11)
Length of Visible Light 11h 23m
Length of Day
10h 25m
First Quarter, 54% of the Moon is Illuminated
Feb 11
First Quarter
Feb 18
Full
Feb 24
Last Quarter
Mar 4
New
Mar 12
First Quarter

Hourly Weather History & Observations

Time (EST) Temp. Windchill Dew Point Humidity Pressure Visibility Wind Dir Wind Speed Gust Speed Precip Events Conditions
12:53 AM 1.9 °F -10.6 °F -8.0 °F 63% 30.05 in 10.0 mi SW 6.9 mph - N/A   Clear
1:53 AM 1.0 °F -12.9 °F -8.0 °F 66% 30.05 in 10.0 mi SSW 8.1 mph - N/A   Clear
2:53 AM -0.0 °F -13.0 °F -8.0 °F 69% 30.05 in 10.0 mi SSW 6.9 mph - N/A   Clear
3:53 AM -0.0 °F -15.3 °F -8.0 °F 69% 30.04 in 10.0 mi SSW 9.2 mph - N/A   Partly Cloudy
4:53 AM 1.0 °F -11.7 °F -7.1 °F 69% 30.04 in 10.0 mi SW 6.9 mph - N/A   Partly Cloudy
5:53 AM -0.0 °F -11.6 °F -7.1 °F 72% 30.05 in 10.0 mi SSW 5.8 mph - N/A   Partly Cloudy
6:16 AM 1.4 °F -9.9 °F -5.8 °F 72% 30.01 in 10.0 mi SSW 5.8 mph - N/A   Overcast
6:53 AM 3.9 °F -3.4 °F -2.9 °F 73% 30.08 in 7.0 mi SW 3.5 mph - 0.00 in Snow Light Snow
7:14 AM 5.0 °F -5.6 °F -2.2 °F 72% 30.03 in 7.0 mi SSW 5.8 mph - 0.00 in Snow Light Snow
7:40 AM 6.8 °F -5.9 °F -0.4 °F 72% 30.04 in 3.0 mi SW 8.1 mph - 0.00 in Snow Light Snow
7:53 AM 6.1 °F -5.6 °F -0.9 °F 73% 30.09 in 4.0 mi SW 6.9 mph - 0.00 in Snow Light Snow
7:57 AM 6.8 °F -6.9 °F -0.4 °F 72% 30.04 in 4.0 mi SW 9.2 mph - 0.00 in Snow Light Snow
8:53 AM 9.0 °F -4.2 °F 1.9 °F 73% 30.09 in 6.0 mi SW 9.2 mph - 0.00 in Snow Light Snow
9:53 AM 12.0 °F -2.0 °F 3.9 °F 70% 30.08 in 9.0 mi SW 11.5 mph - 0.00 in   Mostly Cloudy
10:53 AM 15.1 °F 5.2 °F 5.0 °F 64% 30.07 in 10.0 mi WSW 6.9 mph - N/A   Mostly Cloudy
11:53 AM 19.0 °F 11.1 °F 8.1 °F 62% 30.07 in 10.0 mi SSW 5.8 mph - N/A   Mostly Cloudy
12:53 PM 19.9 °F 6.7 °F 9.0 °F 62% 30.05 in 10.0 mi WSW 13.8 mph - N/A   Mostly Cloudy
1:53 PM 21.9 °F 9.8 °F 10.0 °F 60% 30.02 in 10.0 mi SW 12.7 mph - N/A   Mostly Cloudy
2:53 PM 21.9 °F 9.8 °F 10.9 °F 63% 30.00 in 10.0 mi SW 12.7 mph - N/A   Mostly Cloudy
3:53 PM 24.1 °F 11.5 °F 12.0 °F 60% 29.98 in 10.0 mi SSW 15.0 mph - N/A   Overcast
4:53 PM 23.0 °F 10.1 °F 12.9 °F 65% 29.97 in 10.0 mi SSW 15.0 mph - N/A   Overcast
5:53 PM 23.0 °F 10.1 °F 12.9 °F 65% 29.96 in 10.0 mi SW 15.0 mph - N/A   Overcast
6:53 PM 21.9 °F 8.7 °F 12.9 °F 68% 29.95 in 10.0 mi SSW 15.0 mph - N/A   Overcast
7:53 PM 23.0 °F 9.2 °F 12.9 °F 65% 29.93 in 9.0 mi SSW 17.3 mph - 0.00 in Snow Light Snow
8:53 PM 24.1 °F 9.8 °F 14.0 °F 65% 29.91 in 9.0 mi SW 19.6 mph 24.2 mph 0.00 in Snow Light Snow
9:18 PM 24.8 °F 11.5 °F 14.0 °F 64% 29.86 in 9.0 mi SW 17.3 mph - 0.00 in Snow Light Snow
9:53 PM 24.1 °F 9.8 °F 15.1 °F 69% 29.88 in 10.0 mi SW 19.6 mph - 0.00 in   Overcast
10:53 PM 25.0 °F 11.7 °F 15.1 °F 66% 29.87 in 10.0 mi WSW 17.3 mph - N/A   Overcast
11:53 PM 25.0 °F 11.7 °F 16.0 °F 69% 29.85 in 10.0 mi WSW 17.3 mph - N/A   Overcast